Theta_e
315 314 315 315 316 317 316 316 317 317 317 317 317 316 314 313 315 316 317 318 318 316 316 317 317 317 317 317 320 323 323 323 322 323 326 331 333 334 336 338 340 341 340 340 340 342 342 340 340 338 337 337 337 337 337 337 335 334 334 335 334 332 333 335 332 330 330 330 330 329 329 327 325 327 326 325 328 327 325 324 324 326 328 327 328 329
316 314 316 316 316 318 317 317 318 318 318 317 316 316 314 314 315 317 318 319 319 318 317 317 317 317 318 318 319 322 323 323 323 324 328 330 332 333 336 339 339 340 339 339 340 342 341 340 339 337 336 337 336 335 336 336 335 335 334 332 333 332 331 332 330 328 329 331 331 331 331 330 328 328 327 327 327 323 321 322 324 326 327 328 327 328
316 315 316 317 317 318 319 318 318 318 318 317 316 315 314 314 316 317 318 318 318 318 317 318 317 317 319 320 319 322 325 325 324 325 328 328 330 333 336 338 339 340 340 339 340 341 340 339 338 337 336 335 333 333 335 334 334 336 333 327 330 331 330 331 330 328 329 330 332 331 330 330 330 330 330 328 324 322 323 322 322 322 323 327 328 327
315 315 316 317 317 318 319 318 317 317 317 316 315 314 313 315 315 315 317 319 318 318 317 319 319 319 320 320 319 323 327 327 325 325 328 328 329 333 335 337 339 339 340 339 340 340 340 339 338 337 335 334 332 331 332 330 329 333 334 331 331 330 329 330 332 330 326 328 331 331 331 330 330 328 325 324 322 323 323 323 324 322 320 325 328 327
315 316 317 318 317 318 317 318 316 316 315 315 316 315 314 316 315 315 318 319 319 319 319 319 318 318 319 320 320 323 326 327 326 326 327 329 330 333 335 337 338 339 340 339 339 339 340 339 337 337 335 332 330 329 330 329 329 333 335 334 332 331 329 327 332 332 323 324 327 328 330 327 323 321 321 324 325 324 323 322 323 321 320 325 326 326
316 317 318 317 316 315 315 316 316 316 314 315 317 316 316 317 317 317 318 319 318 317 319 318 315 315 318 320 320 322 326 327 327 327 328 329 330 333 335 335 337 339 339 339 339 339 339 340 337 336 335 331 328 328 328 328 331 332 331 330 326 327 327 324 331 331 323 325 326 324 327 324 322 324 325 326 325 324 324 322 321 319 320 324 325 326
316 317 316 316 316 315 314 315 316 317 314 314 316 316 317 317 318 318 318 318 316 315 319 319 314 313 316 320 321 323 327 326 327 328 329 329 330 332 334 335 337 338 338 339 339 338 338 341 338 335 335 334 331 329 327 327 330 331 329 326 322 324 325 322 329 331 324 324 325 324 327 325 326 327 325 325 325 325 322 316 316 314 315 320 323 325
316 317 316 315 316 315 314 315 316 316 314 313 317 316 316 317 318 319 318 318 316 317 319 320 317 313 315 320 321 324 325 325 326 328 328 329 329 332 334 336 337 338 337 338 339 339 339 341 339 336 336 335 334 332 330 329 332 333 330 324 323 326 324 322 328 331 327 325 326 328 329 328 329 327 323 323 322 320 315 311 314 315 316 321 322 323
316 316 316 315 314 315 314 315 316 316 314 315 318 318 316 316 318 319 318 317 317 316 316 318 318 314 314 320 323 324 323 322 324 326 328 329 330 332 335 335 335 335 335 335 337 339 340 341 341 339 339 337 335 334 332 330 333 335 332 329 329 327 325 326 330 331 328 327 328 330 329 328 328 324 320 321 317 313 310 312 318 322 321 318 318 319
316 316 316 315 314 315 315 317 317 316 315 317 319 318 316 316 317 318 317 316 316 316 315 317 318 313 314 318 321 322 322 322 325 326 327 329 330 332 334 334 332 332 333 335 337 338 338 341 341 341 340 338 337 335 334 332 332 333 333 332 330 326 326 329 331 331 330 329 330 330 329 328 325 322 322 321 315 311 309 311 316 321 320 316 313 313
316 316 316 315 315 316 317 317 318 316 316 318 319 317 317 317 318 318 318 316 316 315 315 317 318 315 314 318 320 321 322 323 326 327 327 328 329 330 333 333 331 332 334 336 336 335 337 340 341 341 341 338 337 336 335 333 331 330 329 329 327 325 325 325 326 328 330 330 330 330 329 327 323 321 322 319 313 312 313 313 315 319 322 321 316 310
315 315 315 315 316 317 317 317 317 317 316 317 318 317 316 316 316 316 315 316 315 315 315 316 318 316 315 319 321 321 324 325 325 325 326 327 328 329 331 331 331 332 334 336 334 334 337 339 338 337 337 336 335 335 334 331 329 327 327 326 326 325 323 322 323 324 326 330 330 329 329 325 318 315 316 315 314 317 318 318 319 320 321 322 319 316
315 315 314 314 316 316 316 316 316 315 316 317 317 316 315 314 315 315 314 314 314 315 317 317 318 317 315 319 323 323 324 325 326 325 325 326 326 327 329 329 331 332 333 334 333 334 337 336 332 331 331 331 331 332 332 329 326 328 329 326 325 325 324 324 324 323 325 329 330 329 329 323 313 311 314 315 316 320 321 321 320 320 320 322 322 323
314 315 314 315 316 316 316 315 314 315 315 316 315 315 315 314 315 315 314 314 313 315 317 318 319 316 315 321 325 325 324 324 327 327 325 326 326 325 325 326 330 332 332 332 331 333 335 333 330 328 329 330 329 329 331 330 328 329 330 328 326 326 326 325 324 324 326 327 328 329 328 323 315 313 315 317 319 321 321 321 320 320 322 323 324 325
313 314 314 315 315 316 316 315 316 317 315 315 316 316 315 314 315 315 314 313 313 314 316 318 318 315 315 321 325 326 325 324 325 327 327 327 326 325 324 325 329 330 331 333 333 335 334 332 330 329 329 329 329 330 330 330 329 328 328 328 327 325 325 326 326 326 327 324 324 327 327 325 322 319 318 320 321 321 320 319 320 321 322 323 324 324
313 314 315 316 316 316 316 315 317 317 316 317 316 316 316 316 316 314 314 315 314 314 316 317 317 317 319 323 326 326 326 324 323 326 327 325 326 327 327 328 329 331 333 335 335 334 333 331 330 329 328 328 328 329 328 328 328 327 326 326 325 324 325 327 327 328 328 325 323 323 324 326 326 323 322 323 321 319 317 318 319 320 322 323 324 321
313 315 316 316 316 317 316 316 317 317 316 317 316 315 316 318 317 314 314 316 315 313 315 316 316 318 320 322 324 324 325 325 325 327 327 328 329 329 329 330 330 332 333 334 334 332 330 329 328 327 326 325 325 326 326 326 325 324 324 323 324 325 326 328 328 328 329 326 322 322 323 325 327 325 324 323 319 315 313 314 316 318 320 322 321 316
315 315 317 316 315 316 317 317 317 317 317 316 315 316 317 318 317 316 314 315 315 313 313 315 316 316 317 320 322 323 325 327 327 327 329 330 331 330 330 330 329 331 332 332 333 331 329 329 328 327 325 325 324 323 322 322 322 323 324 323 323 324 324 325 326 327 328 327 323 321 322 325 326 326 324 320 314 312 312 312 313 315 318 319 316 311
316 314 316 316 315 316 317 316 316 316 317 316 317 318 317 316 315 315 314 314 315 314 313 314 314 314 315 319 321 323 327 328 327 328 327 328 330 330 330 330 329 331 331 331 331 330 330 329 328 326 325 323 323 322 321 321 321 323 324 324 323 323 323 323 324 325 326 327 325 321 322 325 326 324 321 316 311 311 313 312 312 315 316 315 313 310
317 316 315 316 316 316 316 315 313 315 316 316 316 317 317 316 316 315 315 314 314 314 314 314 314 317 320 321 322 325 328 328 328 329 328 328 329 329 329 329 328 329 330 330 329 328 329 328 327 327 325 323 322 323 323 321 320 321 323 323 322 322 323 323 323 324 324 326 324 322 322 324 325 323 318 314 313 313 314 312 311 314 314 312 314 311
318 317 316 317 316 315 314 314 314 314 315 315 314 315 315 317 317 316 316 315 314 314 315 314 315 321 325 324 324 326 327 327 327 328 327 327 328 327 327 327 326 326 326 327 327 327 326 326 326 326 324 322 322 323 322 320 317 316 320 323 321 320 321 322 322 324 324 325 324 322 322 323 324 322 318 317 316 314 313 312 311 312 312 313 314 312
317 317 316 316 316 314 314 315 315 315 315 316 315 314 315 315 315 315 315 315 315 315 315 313 318 324 324 322 324 325 325 327 327 327 327 327 327 326 326 325 326 326 325 324 325 325 325 325 325 325 323 322 323 323 322 322 320 316 317 321 322 319 319 320 322 323 325 326 324 323 323 324 324 321 319 320 318 314 314 314 313 309 308 312 314 312
318 317 316 316 316 316 315 316 316 316 315 316 316 316 316 315 314 313 313 314 315 315 315 313 317 323 322 321 324 324 325 327 328 328 327 327 326 326 325 325 325 325 325 325 325 325 325 325 324 325 325 324 324 323 323 324 325 324 323 326 327 326 324 325 327 326 327 328 327 326 325 325 325 322 321 321 319 317 318 318 314 310 307 311 314 314
317 316 316 315 316 317 316 314 315 316 315 315 316 316 316 316 315 315 315 316 314 314 315 312 314 321 322 321 324 325 327 329 328 328 327 327 326 325 325 326 326 326 326 326 326 326 326 326 325 326 326 326 326 326 326 326 327 328 328 326 326 328 328 329 330 329 329 329 329 329 328 327 326 325 325 323 318 318 321 320 317 313 311 313 315 316
316 316 316 316 316 318 318 315 315 315 314 314 315 316 316 316 317 318 317 318 316 315 316 314 316 322 322 322 324 324 325 328 328 327 328 327 327 326 326 326 327 326 325 326 326 326 326 326 326 326 325 325 326 326 326 327 327 328 327 323 324 328 329 329 329 329 329 329 329 329 329 328 328 327 326 324 320 319 322 321 319 317 316 316 316 316
316 316 317 317 318 318 318 316 315 315 315 315 315 316 317 316 317 318 316 316 316 316 316 315 319 323 322 322 324 323 324 327 328 327 327 327 326 326 326 326 325 325 324 324 325 324 325 325 325 325 326 325 326 325 325 325 326 327 326 325 326 327 328 327 328 328 328 328 328 328 328 328 328 327 326 325 323 323 323 322 322 319 317 318 317 316
316 316 317 317 318 318 316 315 315 316 316 315 314 316 317 316 317 318 316 315 317 317 316 317 321 324 322 322 323 322 324 326 326 326 326 326 325 325 325 324 324 324 323 323 323 322 323 323 323 324 325 325 325 325 325 325 325 326 326 327 327 327 327 327 327 327 327 327 327 327 327 327 327 327 327 326 325 325 324 323 323 322 318 318 318 318
315 316 316 316 316 315 315 314 314 315 315 315 315 316 317 317 318 318 317 317 318 317 318 321 324 324 323 322 322 323 323 324 324 325 324 324 324 324 323 323 323 322 322 322 322 321 321 321 322 322 323 323 324 324 324 325 325 325 326 326 326 326 327 327 326 326 326 326 326 326 326 326 326 327 327 326 325 325 325 323 323 323 321 319 319 319
316 316 316 315 314 313 313 313 313 314 315 316 317 318 318 318 319 319 318 320 319 317 320 324 325 324 322 320 320 320 321 322 322 322 322 322 322 322 322 321 321 321 320 320 320 319 319 319 319 320 320 321 321 322 322 323 323 324 324 324 324 325 325 326 326 326 326 326 326 325 326 326 326 326 326 326 325 325 325 324 323 323 323 321 320 319
317 316 316 316 315 313 313 313 313 313 314 314 315 317 317 318 320 320 321 321 321 322 323 323 322 321 319 317 317 317 319 320 320 320 321 320 320 320 320 320 319 319 319 318 318 317 317 316 316 317 317 318 318 318 319 319 320 321 322 322 322 323 323 324 324 324 325 325 325 324 325 325 325 326 326 325 325 325 325 325 324 323 323 323 322 320
318 317 317 316 314 314 313 312 312 313 312 313 314 314 315 317 318 319 320 321 322 323 322 320 319 317 315 315 316 316 317 318 319 319 319 318 318 318 318 318 317 317 316 316 315 314 314 313 313 313 313 314 315 315 316 316 316 316 317 318 319 319 320 321 322 323 324 324 323 324 324 324 324 325 326 325 325 325 324 324 324 323 323 324 323 322
317 317 317 316 315 315 314 313 313 313 313 313 313 314 315 316 317 316 317 319 322 322 320 319 318 315 314 314 314 315 316 317 317 317 317 316 316 315 315 315 314 313 313 312 311 311 310 310 310 310 310 310 311 312 313 313 314 314 315 315 315 316 317 317 318 319 320 321 322 323 323 323 323 323 324 324 325 325 324 324 324 324 323 322 323 323
316 316 316 316 316 316 315 315 314 314 315 314 315 315 315 314 314 315 316 317 318 319 318 318 317 314 312 312 311 311 312 312 313 313 312 312 311 311 310 311 310 309 309 309 309 309 309 309 308 308 307 308 308 309 309 310 311 312 313 313 314 314 314 315 315 315 316 316 317 319 320 321 322 323 323 323 324 324 324 323 324 324 323 322 322 322
317 317 316 316 316 315 316 316 316 318 317 315 314 316 316 315 314 315 315 315 315 316 317 317 315 313 311 310 308 306 306 306 306 307 307 307 307 306 305 305 305 305 305 304 304 305 305 306 306 307 306 306 306 307 307 307 308 309 310 311 312 313 314 314 314 314 314 314 314 314 315 317 319 321 321 321 322 322 322 323 324 323 322 322 322 320
317 316 315 315 315 315 316 317 318 318 316 314 313 314 315 315 315 315 315 314 313 314 315 315 314 313 312 310 307 305 304 303 303 303 303 303 303 302 302 301 301 302 302 301 301 301 302 302 303 303 304 304 304 305 305 306 307 307 308 308 310 311 312 313 313 313 313 314 313 313 313 313 314 315 317 319 320 320 321 322 323 323 322 322 321 321
315 315 315 314 314 315 316 317 317 316 313 313 313 312 313 314 314 314 314 314 313 313 314 313 312 312 311 309 306 304 303 303 302 301 302 302 302 301 301 301 301 301 301 301 301 301 301 301 302 302 302 302 302 302 303 304 305 306 307 307 308 308 309 311 311 311 312 312 312 312 313 313 313 313 313 314 316 318 319 320 321 322 322 321 320 321
314 314 314 314 314 315 316 316 315 313 313 313 312 311 312 313 313 314 313 313 313 313 312 310 309 309 309 308 307 306 305 304 304 303 303 303 302 302 301 301 301 301 302 302 302 301 301 301 301 302 302 302 303 303 303 302 302 304 305 306 306 306 307 309 309 309 309 310 310 310 311 311 312 312 312 313 312 314 316 318 319 321 321 320 319 319
312 313 313 313 314 314 314 314 314 314 314 313 311 310 310 311 311 313 313 312 312 312 312 309 308 308 309 308 307 307 307 307 305 303 304 303 303 302 302 302 302 302 302 302 301 302 302 301 301 302 302 301 301 302 302 302 301 301 302 304 304 305 306 307 307 307 307 307 307 308 309 310 310 311 312 312 312 313 314 315 316 318 319 320 319 318
312 312 313 312 312 312 312 312 313 313 312 311 310 309 309 309 310 311 312 311 311 312 312 310 309 310 309 309 308 308 310 309 306 304 304 303 302 303 302 302 302 302 302 301 300 300 301 301 301 301 302 301 300 298 298 299 299 299 300 302 303 303 304 306 306 306 305 305 305 306 307 307 309 310 311 311 312 312 312 313 313 314 316 317 318 319
312 311 311 311 311 311 311 311 311 311 309 310 310 309 308 308 309 310 312 311 310 311 311 310 310 310 309 309 310 308 309 308 306 304 304 303 302 302 301 301 301 300 301 300 298 298 299 300 300 300 301 300 298 297 296 297 297 297 298 299 300 301 303 304 304 303 303 303 304 304 305 306 307 308 309 310 311 311 312 312 312 312 314 315 316 317
310 310 310 310 311 311 311 311 311 310 308 309 309 307 307 308 309 310 310 309 309 310 310 309 310 309 309 310 309 307 306 305 304 303 303 302 302 301 301 301 300 300 300 299 297 297 298 299 299 300 299 298 297 296 296 296 296 296 297 297 298 300 301 301 301 300 300 300 301 302 303 304 305 306 306 307 308 309 310 311 311 311 312 313 314 315
309 309 309 309 309 310 310 310 311 310 307 307 307 306 307 308 309 309 309 308 308 309 308 308 308 307 307 307 306 305 304 303 303 303 302 302 302 301 301 300 300 300 299 299 298 297 297 297 299 299 297 297 296 296 296 296 296 296 296 297 297 298 298 298 298 297 297 298 300 301 302 302 302 302 302 303 304 306 308 310 310 311 311 312 312 313
308 308 309 308 308 309 309 310 311 309 306 306 307 306 306 308 308 307 307 307 307 307 307 306 306 306 306 305 304 304 303 303 303 302 302 301 301 301 300 300 300 300 299 299 299 298 296 297 299 298 297 297 297 296 296 296 297 297 296 297 297 297 297 297 297 297 297 297 298 298 298 298 299 299 301 302 303 304 306 307 309 310 311 312 312 312
308 307 308 308 307 308 309 308 308 307 306 306 307 306 305 306 306 306 306 306 306 306 306 305 305 305 305 305 304 304 303 303 302 301 301 301 300 300 300 299 299 300 299 299 299 298 297 298 299 299 299 299 299 298 298 298 298 298 298 298 298 297 297 297 297 297 297 298 298 298 298 298 299 300 301 302 303 304 305 306 308 309 310 311 312 311
307 307 307 307 306 306 307 306 306 306 306 306 306 305 304 304 304 305 305 305 305 305 305 304 304 304 304 304 303 303 302 302 301 301 300 300 300 299 299 299 299 299 299 299 299 298 297 299 299 299 300 300 300 299 299 299 299 299 299 299 299 298 298 298 298 298 298 298 298 298 299 299 300 300 301 302 302 303 304 305 306 307 308 310 311 311
306 306 307 306 306 305 306 306 305 305 305 305 305 305 305 304 304 305 304 304 304 304 303 303 302 302 302 302 302 302 301 300 300 300 299 299 299 299 299 299 299 299 299 299 299 298 298 299 299 300 300 300 300 300 300 299 299 299 299 299 299 299 299 299 299 299 299 299 299 299 298 299 300 301 301 302 302 302 302 303 304 305 306 308 309 310
305 306 306 306 306 305 305 305 305 305 304 304 304 303 303 303 303 303 303 302 302 302 301 301 301 301 300 300 300 300 300 300 300 299 299 299 299 299 299 299 299 299 298 299 298 298 298 299 300 299 299 299 299 299 299 299 299 299 299 299 299 299 299 299 299 299 299 299 299 299 299 299 299 300 300 301 302 302 302 302 302 303 304 305 307 309
304 304 305 304 305 305 305 304 304 304 304 303 303 303 302 302 302 302 301 301 301 301 300 300 300 300 300 300 299 299 300 299 299 299 299 299 299 299 299 299 299 298 298 298 298 298 299 299 299 299 299 299 299 299 299 299 299 299 299 299 298 298 298 298 298 298 298 298 298 298 298 299 299 299 299 300 301 302 302 302 302 302 303 303 305 307
303 303 303 304 304 305 304 304 304 303 303 303 303 303 302 302 302 301 301 301 301 300 300 300 300 299 299 299 299 299 299 299 299 299 299 299 299 299 299 298 298 298 298 298 298 298 299 299 299 299 299 299 299 299 299 299 299 299 299 298 298 298 298 298 297 297 297 297 297 297 298 298 298 299 299 299 300 301 301 302 302 302 303 303 304 305
303 303 303 303 303 303 304 304 304 303 302 302 302 302 302 302 301 301 301 301 301 300 300 300 300 299 299 299 299 299 299 299 299 299 298 298 298 298 298 298 297 298 297 298 298 298 299 299 299 299 299 299 299 299 299 299 298 298 298 298 298 297 297 297 297 297 297 297 297 297 297 297 297 298 299 299 299 300 301 301 301 301 302 302 303 304
303 303 303 302 302 302 303 303 303 302 302 302 302 301 301 301 301 300 300 300 300 299 299 299 299 299 299 299 298 298 298 298 298 298 298 298 298 297 297 297 297 297 297 297 298 298 298 298 298 298 299 298 298 298 298 298 298 298 297 297 297 296 296 296 296 296 296 296 296 297 297 297 297 297 297 298 299 299 300 300 301 301 301 300 301 302
Wind_Speed
13 8 9 9 10 11 12 15 14 9 10 9 10 10 12 11 8 14 12 10 10 11 13 16 14 14 17 14 12 15 16 16 16 16 16 17 17 17 17 17 16 16 15 14 16 18 17 17 17 16 14 13 13 15 16 16 17 18 18 18 16 16 16 16 16 15 14 14 13 12 10 8 7 6 6 6 5 5 5 4 3 2 2 2 2 2
11 9 10 11 13 12 12 15 12 6 7 8 8 7 10 11 8 14 12 10 9 8 9 14 15 15 15 14 13 15 15 14 16 16 17 18 17 17 17 17 17 15 14 14 16 18 18 18 19 19 18 16 17 19 17 18 19 18 19 18 17 18 18 17 17 16 16 15 13 12 11 9 9 7 6 6 6 7 6 5 4 3 2 1 1 1
9 9 11 13 11 7 6 8 8 7 8 9 8 7 8 8 8 11 9 7 8 7 8 13 14 13 13 15 14 13 13 13 17 17 18 19 18 17 18 17 17 15 15 16 17 18 19 19 20 21 22 20 21 23 22 21 20 18 19 20 19 19 20 19 18 17 17 16 14 12 11 11 10 9 9 8 7 8 7 6 4 3 2 2 2 1
7 9 14 12 7 5 5 5 7 8 9 9 9 8 8 8 11 9 8 8 8 7 10 11 10 10 11 13 11 11 13 14 16 18 18 19 18 17 18 17 17 17 16 16 18 19 19 20 21 22 24 23 22 25 25 23 22 19 20 22 22 21 21 21 19 17 18 19 17 14 13 12 11 12 12 9 8 8 7 6 5 4 4 3 2 2
9 7 11 10 7 8 10 8 10 9 8 10 11 11 9 11 12 6 5 9 9 8 11 10 7 9 10 11 10 10 13 14 15 17 18 19 18 16 17 17 17 17 17 17 18 20 20 20 21 24 27 26 24 26 26 23 23 21 20 22 23 21 21 21 18 17 19 18 17 16 15 14 13 12 11 10 9 8 7 7 6 6 5 3 3 2
10 4 6 7 7 11 11 10 11 10 8 10 13 14 14 12 11 7 6 7 7 8 11 11 8 8 10 13 13 10 11 12 14 16 17 20 19 17 17 18 18 17 16 17 18 19 19 20 22 25 28 28 25 26 26 24 23 22 21 22 23 22 22 22 18 16 18 17 16 17 16 15 14 12 11 10 10 9 7 7 6 6 6 5 5 4
8 7 7 8 8 11 12 10 12 12 9 8 11 16 17 14 10 10 9 8 8 5 8 13 10 7 9 13 14 13 12 14 14 14 16 20 19 17 17 17 16 16 16 17 17 18 19 21 23 23 25 29 29 29 28 26 25 24 23 22 23 22 22 22 19 16 17 17 16 16 14 14 14 12 12 12 11 9 8 8 7 6 7 5 5 4
7 7 8 10 10 11 10 9 11 13 10 8 8 15 17 14 10 9 9 8 8 3 4 12 11 8 6 9 13 14 13 16 16 13 14 17 18 17 16 16 15 14 15 17 17 19 19 20 21 21 23 28 30 31 31 29 25 24 25 23 21 20 19 20 18 16 16 17 17 15 13 13 12 13 14 13 12 11 10 8 7 5 6 5 4 4
9 10 9 10 11 8 9 10 11 14 12 8 6 10 14 15 12 10 10 9 8 6 5 10 11 8 5 7 11 14 14 16 17 14 12 13 15 15 14 14 14 11 14 17 16 17 18 18 18 20 22 25 27 28 30 30 25 22 24 23 21 20 19 19 18 17 17 17 17 15 13 13 13 14 15 13 12 11 10 9 8 6 5 4 4 3
7 12 12 12 10 9 12 12 10 13 12 5 5 9 11 13 13 10 9 8 7 8 8 9 10 8 5 7 10 11 12 13 12 10 10 11 10 10 11 12 11 12 16 18 15 14 15 16 16 17 19 22 24 23 24 24 21 20 20 21 22 20 19 20 18 16 16 16 15 13 13 14 14 15 13 12 12 11 10 9 9 7 5 3 3 3
2 5 8 10 12 9 7 5 5 10 11 4 5 9 9 10 10 7 7 7 6 7 9 10 11 9 5 6 8 9 10 10 10 8 8 10 7 6 9 11 13 16 17 15 11 11 13 13 14 16 17 17 17 17 18 18 17 18 19 20 22 21 21 23 20 17 16 15 13 12 12 14 15 15 13 12 12 11 10 9 8 7 5 4 4 4
5 7 7 10 15 8 2 4 6 10 11 6 7 9 8 8 7 7 8 7 7 7 9 10 11 10 6 3 6 10 10 8 9 11 10 11 14 14 12 12 15 17 15 12 10 10 13 11 9 10 11 10 10 10 12 14 12 14 17 18 19 20 21 22 20 18 17 15 12 12 13 13 14 14 13 12 12 11 9 8 7 6 6 5 4 4
8 9 10 12 14 10 6 7 9 9 10 8 9 9 8 7 6 7 8 7 8 6 6 8 9 9 6 2 2 4 10 7 3 8 11 11 15 19 16 14 16 15 12 10 9 10 9 5 5 8 9 10 10 8 9 13 13 15 16 14 14 16 19 21 20 18 18 16 13 13 13 13 13 13 12 12 11 10 8 7 6 5 5 5 5 5
8 9 13 13 11 11 12 8 7 8 9 10 9 8 7 6 6 8 7 7 8 6 5 6 6 7 6 6 7 4 7 7 7 8 9 8 8 10 13 14 14 13 14 13 11 9 5 8 11 13 15 16 16 14 13 16 16 16 15 13 13 15 18 20 19 17 17 18 15 13 14 13 12 13 12 12 11 9 8 6 6 5 5 5 6 6
9 8 12 12 9 12 14 12 7 6 8 10 10 9 7 6 6 6 6 5 6 5 8 8 5 6 6 5 9 8 10 11 7 6 6 7 8 10 13 17 18 17 16 13 10 7 7 10 13 15 17 20 22 21 20 20 21 20 17 13 11 14 18 19 18 17 17 17 16 14 13 12 11 12 12 11 9 9 8 6 6 6 6 6 6 6
10 7 11 15 12 12 15 14 11 7 7 9 9 8 7 7 6 4 2 1 2 3 5 7 4 2 3 5 8 8 11 14 11 9 9 10 12 12 13 17 18 15 11 10 12 13 13 15 17 20 23 25 25 24 22 20 19 18 17 15 12 14 18 17 16 16 14 15 16 14 13 12 12 11 11 10 9 8 7 7 6 6 6 7 7 7
8 6 8 16 14 11 14 14 13 10 6 5 7 9 7 6 6 5 4 2 2 5 4 5 5 4 6 5 6 6 7 11 13 11 10 10 11 12 14 15 14 14 14 14 16 20 22 21 21 23 26 25 22 20 18 17 15 12 13 17 17 16 16 14 14 14 11 12 15 14 13 12 12 11 11 10 10 8 7 6 6 6 8 8 8 8
6 5 4 12 13 13 12 10 12 12 8 5 6 8 6 5 6 5 4 3 5 7 5 6 8 7 6 5 9 11 9 9 9 9 9 8 10 13 15 15 16 17 16 15 17 19 19 18 17 18 18 16 15 16 17 18 17 14 13 18 20 17 14 11 11 10 10 10 12 13 13 12 12 11 11 11 10 9 7 5 5 7 9 9 9 10
6 6 5 10 12 13 11 8 10 10 11 10 6 5 6 6 6 6 5 4 6 7 6 7 8 7 5 5 10 13 10 10 9 9 9 8 10 12 14 16 17 18 18 17 17 16 15 14 13 14 15 15 16 16 19 21 20 17 13 14 17 16 13 11 9 8 10 10 10 13 13 13 12 11 10 10 9 8 5 3 6 8 9 9 10 11
6 6 5 9 11 9 9 8 9 8 10 12 8 6 7 5 5 5 4 5 6 6 5 7 8 3 2 1 7 9 10 11 9 9 10 9 10 12 12 13 14 15 17 17 17 16 15 14 14 14 15 18 19 18 18 20 20 19 15 12 13 14 12 11 9 8 8 9 10 13 13 13 12 10 11 10 8 6 3 3 8 10 10 10 11 11
6 5 4 7 9 8 7 8 11 10 10 11 9 8 7 5 4 5 4 5 7 6 5 7 6 3 5 6 7 8 9 10 10 9 9 10 12 12 11 11 11 11 12 14 16 15 14 14 14 15 17 21 23 21 19 19 20 20 16 11 11 12 12 11 11 10 10 10 12 13 13 14 13 12 12 9 7 7 5 6 11 12 11 12 11 11
5 6 6 6 7 8 8 9 13 12 9 8 9 9 9 8 6 6 6 6 7 6 5 6 3 4 3 4 4 6 7 9 10 10 10 12 14 12 11 12 12 13 13 13 14 13 13 15 16 16 19 21 22 21 19 18 19 20 18 13 11 13 13 13 12 11 11 12 13 14 13 15 15 14 12 8 6 8 7 8 12 12 12 13 12 12
1 3 6 7 8 7 5 4 6 7 8 8 8 8 9 9 8 7 7 6 7 6 6 7 3 3 2 4 3 4 8 11 12 12 13 14 14 13 13 13 14 14 14 13 14 14 14 16 16 15 16 18 18 17 18 17 16 16 16 13 9 10 11 10 8 8 9 10 11 12 12 14 14 13 11 9 8 10 9 10 13 12 12 13 12 12
1 4 6 8 8 7 4 3 4 5 7 8 8 8 9 9 9 9 7 6 6 7 6 7 5 3 2 2 1 5 10 12 12 13 14 14 14 14 14 14 15 14 14 14 14 14 15 15 15 14 14 14 13 13 13 13 11 10 11 10 8 10 12 10 10 10 10 10 10 10 11 13 13 12 11 10 11 12 11 11 13 12 12 12 12 12
2 3 5 7 6 7 8 7 6 6 7 8 8 8 9 11 10 8 6 6 7 7 7 6 4 3 3 1 3 8 10 11 11 13 14 15 16 15 15 15 15 15 14 14 14 14 15 15 14 13 13 12 11 11 11 10 9 9 9 7 7 9 10 10 11 10 9 10 10 11 12 12 11 11 11 12 14 13 12 12 12 12 13 12 12 13
1 1 2 6 6 6 4 3 3 4 6 8 8 6 6 10 12 8 6 7 7 7 8 6 2 5 5 6 8 9 8 9 11 12 14 15 15 16 16 15 15 15 15 13 13 13 13 13 12 12 12 12 11 11 11 10 9 10 9 7 6 7 7 7 8 8 8 8 8 9 11 10 10 11 12 14 14 12 12 12 12 13 13 12 13 13
2 2 2 2 2 1 1 5 11 11 8 9 9 7 5 7 9 7 7 8 5 6 9 5 7 12 10 9 9 9 8 9 9 10 13 14 14 15 15 15 15 15 15 14 13 13 12 12 11 10 11 13 12 11 11 9 9 10 10 9 8 7 7 7 8 9 8 6 5 6 8 8 9 10 11 12 13 12 12 12 12 13 13 13 13 14
3 4 5 4 3 2 2 5 13 16 9 4 4 4 4 5 7 7 7 6 3 4 4 3 12 14 12 11 9 9 8 8 8 9 12 14 14 15 15 15 16 15 15 14 14 14 13 13 12 11 11 12 12 12 12 11 10 10 9 9 8 8 8 8 8 8 8 7 6 6 6 7 8 9 10 11 12 12 13 12 13 13 13 13 14 14
5 6 8 7 6 5 3 3 8 13 10 5 4 4 3 1 3 4 3 2 3 3 3 8 12 12 11 10 8 8 8 8 9 11 12 14 14 14 15 16 15 15 14 15 15 15 15 15 14 13 12 12 11 10 10 10 10 10 9 8 7 8 9 8 8 8 7 7 6 6 6 7 8 8 9 11 12 13 14 14 14 14 14 14 14 15
4 4 9 9 8 8 7 5 2 5 8 7 6 7 8 6 5 5 5 5 5 6 9 13 15 13 10 9 8 8 8 10 12 12 13 14 13 13 15 16 15 14 15 15 15 15 16 17 17 16 15 14 13 12 11 10 10 10 9 8 7 7 7 7 8 8 8 7 6 5 5 6 6 6 6 8 9 11 12 13 14 15 14 14 14 14
2 3 7 8 7 8 10 8 7 5 5 7 7 8 9 6 6 7 7 8 8 10 12 14 15 11 8 8 9 9 10 11 12 14 14 14 14 13 14 16 15 15 15 15 15 14 16 18 18 17 17 16 15 14 13 12 11 10 9 9 8 7 6 7 7 7 7 7 6 5 5 4 4 5 5 5 6 7 8 9 11 13 15 15 15 15
3 3 5 6 7 6 9 11 11 10 7 8 10 8 5 5 6 6 6 7 5 8 11 11 9 7 8 10 11 11 12 13 13 14 14 14 15 15 15 16 16 15 16 16 15 15 17 18 18 18 17 16 16 15 14 12 11 11 11 10 9 9 8 8 8 7 7 6 6 5 4 3 3 4 4 4 4 5 7 9 9 11 13 16 18 18
5 4 5 6 6 6 8 10 10 10 9 8 8 8 6 3 1 3 5 8 9 4 4 5 6 9 11 12 12 11 10 11 12 12 12 14 16 16 16 16 16 16 15 15 15 15 16 17 17 17 17 16 16 15 14 13 12 12 11 10 9 9 8 9 8 8 8 7 7 6 4 3 3 2 2 3 4 5 7 9 10 11 12 15 18 20
4 4 4 4 5 7 8 9 9 9 8 3 1 1 4 7 6 3 3 5 7 6 5 8 11 14 14 13 13 12 11 12 14 14 14 15 16 18 18 17 17 16 16 16 16 16 16 16 15 16 16 15 16 15 14 14 13 12 11 10 9 8 8 8 8 8 8 7 7 7 6 4 3 2 1 2 3 3 6 7 9 12 13 14 16 18
5 6 5 4 6 5 4 7 8 7 3 1 2 2 1 4 7 8 7 6 5 7 10 12 14 14 14 15 16 17 17 17 18 18 18 17 18 19 20 18 17 16 16 16 17 16 15 15 14 14 14 14 15 14 14 14 14 12 11 10 10 9 8 7 7 8 7 7 7 6 5 5 4 3 1 1 2 3 5 6 8 11 13 14 15 16
3 5 5 4 3 1 3 6 6 2 3 3 3 3 3 5 8 8 7 6 7 9 10 12 13 13 16 19 20 21 22 21 20 19 17 16 17 18 18 17 15 15 15 14 13 13 12 12 11 11 11 10 10 11 12 13 13 12 11 11 10 9 8 7 7 8 7 6 6 6 5 5 3 3 2 1 2 3 5 7 9 10 11 14 15 15
3 3 3 3 3 3 5 5 2 3 3 3 4 3 2 2 2 1 3 6 5 8 12 12 12 14 17 19 21 22 22 20 16 13 12 12 12 14 14 14 14 15 14 12 11 11 11 10 10 10 10 9 8 8 9 10 10 10 10 9 9 10 8 6 6 7 6 6 6 6 6 5 4 4 3 3 3 4 4 6 8 9 10 13 14 14
5 4 3 4 5 5 6 5 2 3 3 3 5 4 5 6 6 5 3 6 3 7 14 14 12 15 17 17 20 20 17 12 9 8 11 11 11 11 12 12 12 11 10 9 9 9 9 10 11 11 11 11 11 10 10 10 10 10 10 9 8 9 8 6 5 6 6 6 7 6 6 6 6 5 5 5 4 5 5 6 7 9 10 12 13 14
5 4 5 6 6 5 7 7 5 2 1 3 5 5 3 3 5 5 2 5 4 7 14 14 12 15 16 16 18 15 9 5 6 9 12 12 11 10 10 10 9 8 8 7 7 7 7 7 8 8 8 8 10 11 11 11 10 10 10 9 8 8 7 7 6 7 8 8 8 8 8 7 7 7 7 6 6 6 7 7 8 9 10 12 13 13
5 5 5 7 8 6 7 7 3 2 3 3 4 5 4 3 2 5 4 5 5 8 12 13 13 14 14 15 14 7 1 3 8 11 12 12 11 10 8 8 7 6 6 6 7 7 6 6 6 6 7 8 10 12 13 12 12 11 11 11 11 9 8 9 10 12 12 12 12 12 10 9 8 8 8 9 9 9 9 9 10 10 11 12 13 14
3 4 5 7 7 6 5 5 1 3 4 3 3 4 6 4 2 4 2 6 7 9 11 11 11 11 11 10 9 7 10 11 12 12 11 11 10 9 7 7 6 5 5 5 7 7 6 6 6 6 7 8 10 12 13 14 14 14 14 14 13 12 12 13 15 16 18 19 18 16 14 12 12 13 13 14 14 13 13 12 12 13 13 13 14 15
2 3 5 6 6 5 5 5 3 3 4 5 3 4 7 5 2 2 5 9 11 11 11 10 9 8 8 9 11 14 15 14 12 11 10 9 8 7 6 5 5 5 4 6 7 7 8 8 6 7 9 11 12 13 13 14 15 15 15 15 14 14 16 17 18 19 21 20 19 17 17 18 19 20 21 21 20 18 16 15 15 15 15 16 17 17
3 3 4 2 3 4 4 5 3 2 3 4 1 3 6 4 4 7 8 10 11 11 11 11 9 8 9 12 14 13 13 12 10 9 8 8 7 6 5 5 4 4 4 5 5 7 10 9 6 9 11 11 13 14 15 15 15 15 15 15 15 17 19 20 20 21 21 21 21 22 23 23 23 23 23 22 21 20 19 18 17 16 17 18 19 19
4 4 3 3 3 4 3 1 1 2 4 4 3 4 6 7 8 9 9 10 10 11 11 10 8 7 8 9 9 10 10 10 8 7 7 6 6 5 5 4 4 4 5 5 4 7 9 7 6 7 8 8 10 12 12 12 11 13 14 15 16 18 19 20 20 20 21 22 22 23 23 23 23 23 21 20 20 20 20 19 19 19 19 19 20 21
5 3 2 4 4 3 4 4 3 4 7 8 8 9 10 10 8 7 9 9 8 8 9 9 8 8 7 7 7 8 8 8 7 6 6 5 5 5 5 4 5 5 6 6 5 7 7 6 6 6 6 7 8 8 9 9 10 12 14 15 16 18 18 19 20 20 21 22 22 22 22 21 21 22 22 21 21 20 21 21 21 21 22 22 22 22
5 3 2 2 5 6 7 6 6 6 8 9 10 10 11 10 8 8 9 10 10 10 9 8 7 7 6 6 6 7 7 6 6 5 5 5 4 4 5 5 5 6 6 6 6 7 7 6 6 6 7 8 8 8 8 9 10 12 13 14 14 15 16 17 18 19 20 20 21 22 22 22 21 21 21 21 22 22 23 23 23 23 23 24 25 25
4 2 2 2 4 4 4 6 7 7 9 9 10 10 10 10 9 9 10 10 9 9 9 8 6 7 7 7 7 6 6 6 5 5 5 4 4 5 5 6 6 7 7 7 7 7 7 6 6 7 8 9 10 10 10 11 11 13 14 14 15 15 16 16 17 18 18 18 19 19 20 20 21 21 21 21 21 23 23 24 25 25 26 26 27 27
3 2 1 1 1 2 5 9 9 9 9 9 8 9 9 9 10 10 10 10 9 8 8 7 6 7 7 6 6 5 5 4 5 5 5 4 4 5 5 6 7 7 7 7 7 6 6 7 7 8 10 11 11 11 12 12 13 14 14 15 16 16 17 17 17 17 18 18 19 19 19 20 21 21 22 22 21 22 23 24 24 25 26 27 28 28
2 2 1 1 3 5 7 10 10 9 9 8 7 8 8 8 9 10 10 9 9 8 7 6 6 7 6 5 5 4 3 3 4 5 5 4 4 5 6 7 8 8 7 6 6 5 6 7 8 9 10 11 12 12 13 14 15 15 16 17 17 17 18 18 17 18 18 18 18 19 19 19 19 20 21 22 22 23 23 24 24 25 25 24 25 28
3 2 2 1 3 3 4 8 7 3 4 7 8 8 7 7 7 7 6 6 5 5 4 4 4 4 4 5 5 4 3 3 3 4 5 5 5 6 7 8 8 8 7 6 5 5 6 7 9 10 11 12 12 13 15 16 16 16 17 17 17 17 17 16 16 17 17 17 17 17 17 18 19 19 20 21 22 23 23 24 26 28 29 27 26 26
4 5 4 2 0 3 5 7 4 2 3 8 9 7 6 5 4 3 2 2 1 1 2 3 3 2 3 3 3 4 3 3 4 5 5 5 6 7 8 9 9 8 7 5 5 5 6 8 9 10 11 12 13 15 16 17 17 17 16 16 15 15 14 14 14 15 15 15 16 17 18 18 18 18 19 20 21 21 23 24 25 27 30 32 31 28
Wind_Direction
194 205 217 216 224 210 208 227 232 260 288 263 233 217 226 233 205 224 222 155 184 213 201 216 219 214 228 225 193 185 197 206 211 210 205 201 197 199 196 185 181 181 183 183 181 182 178 177 173 167 179 179 167 173 178 180 181 182 186 184 177 175 176 173 169 165 161 159 158 154 151 155 154 164 177 168 164 171 176 187 194 190 192 217 226 245
202 218 223 216 230 225 205 222 235 270 297 273 257 236 222 233 216 211 202 149 177 221 209 212 224 221 218 227 216 190 189 205 211 208 204 205 200 197 194 184 182 181 180 182 181 184 180 176 169 164 179 183 170 176 182 181 180 180 184 182 175 175 174 169 165 165 162 159 160 156 150 151 150 153 160 162 171 171 167 167 162 164 166 169 173 198
212 226 230 218 223 232 205 217 235 247 249 247 254 254 229 226 226 203 168 142 175 205 226 216 220 227 216 226 226 189 184 210 213 207 206 210 204 196 191 182 180 179 179 183 186 189 184 180 172 165 179 187 178 180 186 184 178 176 181 179 178 177 171 167 166 166 163 159 156 153 149 146 143 147 154 161 164 158 161 164 149 151 158 145 141 140
211 219 225 215 188 196 209 215 232 235 234 240 240 241 237 218 220 208 164 181 198 200 239 234 219 227 221 223 223 188 191 210 212 209 209 211 208 197 189 183 181 180 181 185 192 195 187 184 178 168 176 186 186 186 186 183 177 179 184 181 181 182 173 169 167 168 170 162 152 150 148 146 151 159 159 154 144 141 152 156 151 164 162 126 109 104
231 213 207 193 158 194 216 212 220 229 221 226 234 238 240 222 219 218 172 195 200 201 238 251 231 225 215 209 215 201 199 206 206 208 208 208 208 197 186 185 185 186 187 188 195 197 190 188 181 171 173 182 191 191 184 183 180 180 185 180 179 180 174 171 167 171 175 160 150 153 152 152 157 154 145 138 136 135 139 141 154 171 161 135 123 106
237 170 155 184 178 201 217 211 210 223 227 219 223 236 249 242 222 194 159 186 210 205 213 224 235 230 203 202 213 202 196 206 204 205 208 205 202 193 186 188 189 191 193 195 199 198 195 194 187 176 172 175 188 192 188 189 186 181 182 177 172 172 172 171 167 172 175 160 153 156 152 151 150 141 139 143 140 135 139 143 147 154 153 157 148 126
229 158 163 210 207 207 217 219 209 212 236 233 205 217 243 257 239 210 187 195 227 224 190 202 231 245 198 200 209 193 192 208 204 203 207 203 200 193 188 187 186 192 197 200 202 200 201 199 189 179 172 171 180 190 190 193 192 185 180 175 171 169 169 171 170 171 166 157 155 155 151 150 145 143 147 147 142 143 154 153 146 147 146 147 146 135
223 185 185 206 209 213 218 223 210 202 227 249 199 196 223 242 240 228 221 219 231 247 188 200 227 250 213 201 195 182 194 205 199 201 204 203 201 191 187 185 185 196 205 207 206 200 202 202 191 184 180 172 173 182 184 188 193 186 179 178 173 168 165 171 177 171 157 153 155 154 154 151 147 151 151 148 149 153 155 149 139 137 132 132 141 139
204 213 201 198 208 215 220 223 206 200 223 252 222 191 210 226 225 221 229 235 232 232 223 211 222 238 228 207 184 176 198 205 196 194 194 205 203 188 183 184 184 196 214 220 215 205 204 203 196 192 188 175 169 175 177 182 189 181 176 175 168 165 166 173 182 171 156 155 156 155 155 151 150 153 148 147 151 152 150 144 138 139 143 154 163 161
185 215 206 199 209 213 221 222 194 197 215 237 239 215 210 220 221 220 228 236 235 234 238 222 215 227 222 192 175 179 200 201 193 190 187 199 204 189 180 176 183 201 219 226 220 215 212 206 201 197 189 178 171 170 168 176 181 171 168 170 166 171 171 171 178 168 159 162 158 155 157 151 149 148 144 147 149 145 143 139 141 146 152 169 184 188
148 211 213 205 215 224 223 203 175 212 216 193 231 226 212 216 217 223 233 237 237 235 240 227 216 229 229 179 179 196 200 191 187 185 185 180 170 194 195 182 192 203 214 221 218 226 220 209 208 200 189 177 165 161 157 156 152 152 165 171 171 180 178 171 170 164 162 166 159 155 156 152 151 151 149 151 146 139 139 137 140 147 149 164 193 201
211 207 213 216 227 249 267 178 194 232 229 210 227 221 204 209 210 214 221 222 229 233 236 224 212 223 230 198 203 193 166 166 185 176 175 169 165 181 191 192 203 206 209 208 203 224 225 215 211 197 188 173 151 146 155 158 154 162 176 177 176 183 181 172 167 164 162 161 163 159 154 156 159 158 153 148 143 140 141 139 138 148 159 172 187 185
218 209 199 207 221 233 242 209 190 213 225 219 225 220 207 203 205 217 215 211 224 230 230 216 204 215 216 108 79 143 125 109 93 144 168 175 170 176 178 192 207 204 202 203 204 221 218 182 118 106 117 140 142 127 146 175 193 188 181 179 181 181 180 175 171 171 162 156 168 164 155 162 162 157 152 146 145 142 143 146 146 153 162 169 174 165
206 209 202 203 204 206 228 231 183 189 209 213 218 217 210 202 207 222 219 215 222 211 198 205 199 217 212 129 103 98 117 114 73 96 157 166 151 170 181 193 206 202 199 201 201 205 174 111 102 100 104 126 141 136 142 165 176 170 163 170 180 175 174 174 173 173 163 159 172 169 160 164 157 153 153 150 148 145 147 153 149 152 164 173 174 162
204 206 201 206 193 184 213 239 233 204 199 210 225 226 219 214 216 229 232 232 238 212 186 191 196 222 224 138 123 130 127 124 101 98 147 149 152 185 187 182 190 196 195 186 167 152 134 119 115 113 114 124 133 136 140 149 152 150 147 152 174 176 169 168 171 173 167 164 175 178 168 162 154 153 154 153 156 152 154 156 152 159 167 171 171 170
222 218 193 205 205 186 201 229 245 239 210 206 224 230 227 226 225 237 262 352 326 277 196 187 205 195 158 118 118 131 129 131 142 154 155 153 161 169 155 155 169 169 156 141 118 107 112 116 113 112 115 119 125 130 135 139 143 147 148 146 160 173 166 164 170 172 166 165 175 183 177 163 157 157 154 159 164 158 159 159 157 164 163 164 170 179
225 234 191 194 204 205 207 214 222 233 235 202 214 228 228 236 245 245 235 164 187 261 229 195 210 158 142 152 139 143 140 136 145 148 144 141 136 123 112 122 133 124 119 121 111 105 107 110 114 116 114 114 120 128 134 141 144 149 156 151 151 164 167 162 164 163 162 167 175 185 184 168 162 158 157 169 170 161 161 156 157 167 169 172 176 179
225 264 217 186 197 210 216 230 229 229 243 231 216 224 219 232 256 258 249 202 200 233 228 202 212 193 183 188 165 168 162 131 124 118 108 99 93 91 92 102 109 109 113 113 106 105 105 105 113 117 119 124 133 138 138 142 144 145 152 149 148 161 174 169 162 160 163 169 177 189 189 176 168 164 168 178 171 160 156 152 162 172 174 179 180 177
214 255 238 203 211 204 199 236 242 226 236 250 263 252 227 228 232 231 240 229 219 234 229 210 212 215 220 191 170 172 153 120 118 118 111 102 94 91 89 93 100 102 102 100 98 103 104 102 104 111 127 142 147 142 136 135 137 136 142 148 151 161 172 172 172 170 170 172 181 191 193 186 180 180 183 181 170 161 156 163 173 171 172 178 178 176
207 242 228 211 225 206 184 215 232 217 218 235 262 262 240 245 241 229 234 237 231 229 231 224 209 201 341 94 140 145 132 126 129 123 120 115 103 100 97 98 101 102 104 104 101 101 104 109 115 118 127 134 131 128 129 131 130 128 136 149 158 164 167 170 175 180 181 179 184 195 203 201 197 196 190 185 186 185 178 190 180 172 172 172 171 175
206 223 224 216 225 217 199 209 220 223 214 212 225 234 232 234 230 233 242 253 254 235 222 232 208 127 27 32 87 114 126 131 132 126 123 115 104 101 99 98 97 96 104 112 114 113 110 112 119 121 122 124 124 128 133 135 128 125 132 148 164 168 170 176 182 190 194 193 193 201 208 205 204 204 194 193 210 199 182 185 182 176 172 168 170 175
211 219 229 227 222 223 227 220 216 227 240 226 215 221 230 229 223 232 233 233 251 253 240 240 203 105 33 7 73 117 126 126 129 126 117 110 105 101 98 100 101 97 99 107 112 117 119 119 122 126 130 131 133 138 143 147 144 140 145 162 177 178 184 195 198 196 195 195 195 199 204 204 206 208 204 208 210 193 185 184 182 181 174 168 171 171
323 241 240 233 228 231 242 251 232 242 268 262 240 229 229 230 231 240 242 233 237 250 261 261 236 112 44 345 25 112 123 128 129 119 111 110 107 104 103 104 104 100 101 104 107 113 119 123 124 128 134 135 135 139 142 150 157 153 153 163 174 171 178 191 190 184 186 188 191 194 197 203 205 204 211 222 202 186 189 186 183 185 178 171 170 167
29 228 249 243 238 239 220 216 239 244 257 255 246 242 239 235 232 236 246 253 250 247 252 257 241 143 88 332 358 104 108 117 117 109 108 111 108 107 107 108 106 103 101 102 108 116 121 124 128 131 134 130 126 131 135 139 147 146 149 167 181 171 165 170 171 171 178 185 189 191 191 197 200 197 204 212 194 183 187 189 186 185 178 175 174 170
199 225 256 242 239 241 218 206 212 215 230 239 235 243 250 245 242 248 248 241 247 247 239 242 236 117 106 178 115 100 105 113 111 108 110 112 112 110 105 106 107 105 102 100 104 112 116 121 127 131 134 130 124 125 125 123 125 129 138 160 183 171 162 172 175 170 177 184 184 188 190 192 196 196 195 193 188 185 188 191 189 185 182 181 180 178
117 32 295 253 248 243 221 232 276 253 234 228 226 238 256 247 248 258 250 237 241 242 241 243 181 116 133 145 113 102 117 120 112 115 117 117 118 113 105 103 103 100 97 94 95 100 102 106 113 118 124 126 123 123 124 122 122 128 133 134 141 147 150 160 160 160 177 184 178 184 189 187 188 193 191 189 190 191 192 195 194 190 188 187 186 186
108 75 54 347 305 252 259 330 329 314 267 225 216 223 232 240 249 257 248 245 249 244 249 235 148 136 138 133 115 108 116 113 112 121 122 123 125 120 113 107 102 100 99 96 96 96 94 92 95 103 113 116 115 115 117 118 119 123 127 124 125 134 139 139 142 150 161 166 166 175 181 182 185 189 193 194 197 197 195 198 198 195 194 193 192 191
177 182 137 102 102 145 247 315 332 329 307 243 206 219 220 217 228 237 241 257 278 261 262 119 125 133 131 125 115 108 107 109 118 122 119 121 122 122 121 114 109 106 103 101 98 94 94 94 92 95 103 108 110 112 112 114 116 117 121 125 131 138 139 137 141 146 148 154 164 170 176 182 183 187 194 196 199 200 195 197 201 199 197 197 198 198
224 203 168 163 165 169 210 270 317 329 338 9 45 40 33 72 190 209 223 275 282 241 154 119 119 121 124 120 103 89 87 94 106 112 117 122 123 126 127 121 116 113 108 104 98 91 90 91 88 87 91 96 101 103 101 104 109 109 111 116 122 131 135 133 132 136 140 145 154 166 178 182 178 183 193 194 199 205 201 199 205 206 203 203 203 203
240 196 173 185 191 191 198 194 219 304 321 338 7 20 20 41 80 85 77 73 84 103 114 119 115 109 116 121 104 94 95 101 109 115 119 122 123 128 130 124 118 115 111 106 100 92 86 84 83 80 79 83 88 91 92 96 100 101 102 103 103 110 118 119 123 131 133 131 138 155 166 169 169 173 185 189 192 201 203 202 208 209 207 206 207 207
234 184 174 196 214 206 198 185 178 208 268 294 310 341 355 15 56 63 60 68 92 107 108 109 104 99 112 122 115 115 119 121 123 123 122 121 120 121 123 122 118 113 109 103 98 93 84 78 76 73 71 72 74 77 81 86 91 93 95 100 104 108 111 109 115 121 120 119 124 132 138 143 155 164 176 183 186 193 197 202 211 213 208 206 207 209
202 192 180 213 235 219 199 195 192 188 202 244 257 269 309 358 29 38 38 40 64 117 130 126 113 112 131 129 124 127 129 129 127 124 122 121 120 118 118 117 112 108 107 102 95 89 81 74 71 68 65 64 63 63 66 69 74 76 77 82 87 94 99 101 104 106 103 104 107 115 126 126 131 151 168 176 184 197 201 202 210 216 212 208 207 209
197 196 200 214 229 231 216 207 201 199 205 225 236 230 218 189 94 41 36 27 23 51 142 143 115 122 134 132 125 117 108 102 100 99 99 99 98 95 95 98 97 96 98 94 85 77 71 67 64 61 58 56 53 51 52 53 54 56 59 63 69 77 84 87 90 91 90 91 91 92 97 104 122 154 182 189 189 207 216 211 211 217 218 217 218 219
208 223 225 215 229 236 216 199 206 223 225 226 338 227 191 182 177 153 81 43 26 32 68 94 110 127 136 135 129 114 94 80 76 73 73 79 81 79 77 78 77 78 78 76 75 72 68 65 61 57 56 51 44 41 44 46 45 44 45 48 52 59 66 72 77 77 77 78 79 80 80 79 90 114 164 218 217 230 236 224 219 225 226 226 229 231
200 221 226 222 238 245 180 175 202 223 228 40 38 48 97 159 152 123 99 87 81 89 98 106 120 130 130 128 125 116 104 91 81 76 75 79 86 88 84 79 75 73 70 67 70 74 76 75 68 63 61 54 46 41 38 35 34 33 35 38 40 43 49 57 64 64 63 63 62 63 64 62 63 75 77 249 241 246 249 241 234 234 235 236 239 240
197 224 232 224 232 235 172 197 206 179 100 76 93 113 114 145 146 128 107 102 111 119 116 115 119 120 120 124 123 119 114 103 90 85 82 81 86 86 83 79 74 71 67 61 58 62 70 72 66 62 61 62 60 56 44 32 26 24 24 27 28 28 34 43 49 51 48 44 43 40 36 32 26 26 27 347 275 261 255 251 247 241 240 246 248 247
240 252 263 240 226 217 214 209 147 130 153 132 113 96 62 90 126 133 119 118 131 137 124 118 121 124 126 128 127 127 124 113 100 96 93 87 83 80 74 70 68 65 62 55 44 40 39 40 40 37 31 27 30 40 39 28 22 20 14 14 18 16 17 25 32 34 28 22 21 17 9 4 354 343 336 319 303 283 260 253 254 248 243 248 252 251
244 240 242 238 236 242 244 236 193 194 203 141 106 67 16 15 4 353 93 125 179 165 134 128 133 134 134 136 137 140 137 121 106 112 113 105 96 91 83 77 74 71 69 62 50 39 28 26 30 25 16 9 359 356 0 357 356 357 354 358 6 1 353 351 354 359 359 356 354 351 346 341 335 327 316 306 299 285 269 261 259 256 252 252 253 253
255 239 235 241 240 247 259 257 248 250 354 72 88 68 27 19 356 324 202 152 180 162 140 140 146 142 142 146 149 158 167 146 122 123 123 118 107 99 93 87 82 79 73 58 44 40 30 22 25 20 11 4 350 342 344 342 338 336 336 337 337 333 330 324 320 326 331 330 328 326 325 322 314 308 300 292 286 283 279 271 264 261 258 254 251 252
248 246 250 253 251 249 252 259 267 70 69 56 59 48 25 26 341 274 223 165 167 160 145 145 148 143 146 155 157 156 95 98 121 123 121 117 109 98 90 85 75 68 65 40 18 27 28 11 9 7 358 348 337 332 331 330 326 322 318 317 316 320 319 310 307 308 305 302 301 303 307 307 300 295 290 280 274 275 275 270 266 262 257 255 252 248
236 248 253 253 257 263 262 262 248 105 82 37 32 17 1 357 249 234 158 131 153 155 141 141 147 147 152 161 151 101 78 93 113 117 113 110 104 95 87 81 67 57 52 20 7 15 16 2 355 351 344 334 328 326 323 320 318 316 312 310 309 309 305 300 299 297 294 293 294 294 292 285 281 280 279 275 273 273 271 267 265 261 257 254 251 249
265 273 259 255 263 271 267 262 242 108 47 11 25 21 354 340 209 146 104 125 142 142 134 133 136 134 120 105 99 97 98 103 108 109 104 97 94 89 81 71 62 53 31 16 10 355 349 357 349 332 331 327 322 321 318 314 313 311 308 306 304 299 295 293 292 291 291 291 290 286 281 278 277 278 277 277 276 274 270 266 263 261 259 255 251 253
10 302 260 279 319 284 260 258 252 114 42 355 25 57 13 15 114 114 109 121 126 125 125 125 127 126 106 93 95 102 104 102 99 97 91 83 78 77 70 58 54 45 17 15 11 337 339 353 340 324 329 326 320 318 315 313 312 306 302 300 295 289 288 288 288 288 288 286 283 280 279 278 278 278 277 276 275 272 269 267 262 258 256 254 251 250
23 315 285 44 18 305 287 306 335 64 62 37 58 84 66 69 96 113 117 122 127 126 121 114 115 122 117 112 113 109 99 94 88 80 73 67 62 59 54 41 36 27 9 8 355 334 342 351 332 326 334 327 322 324 322 320 319 315 314 311 303 297 295 293 291 287 283 281 280 281 282 281 279 278 274 271 270 268 265 262 259 256 253 251 250 246
41 19 4 51 49 18 45 78 91 80 74 71 82 102 103 95 103 123 125 116 113 118 121 118 113 109 112 120 119 101 86 78 71 64 56 49 46 41 30 23 17 6 0 0 345 336 346 348 335 337 342 335 335 337 334 332 329 327 329 327 320 317 314 309 304 298 291 287 283 280 278 277 277 275 272 268 264 261 259 258 255 254 251 248 247 245
59 51 3 72 107 94 76 85 102 99 89 82 85 98 105 102 105 116 109 89 70 73 96 114 113 97 88 89 88 79 70 63 56 51 42 36 37 28 15 12 6 356 355 355 343 341 351 352 345 349 350 345 346 341 335 333 329 324 324 321 318 317 313 309 307 304 300 298 293 288 283 279 276 274 273 269 264 260 257 255 252 251 249 247 245 245
65 13 341 134 151 143 103 102 111 114 113 107 100 98 98 96 97 99 98 92 81 76 82 90 89 77 68 64 63 61 57 54 45 36 30 24 19 14 8 4 358 352 352 350 342 347 359 358 353 353 348 342 339 333 329 328 324 319 316 314 313 311 307 304 301 298 297 298 296 295 293 288 282 276 270 267 267 264 259 255 252 250 248 246 245 244
41 342 307 125 123 111 115 122 126 123 119 117 116 115 113 108 104 101 100 101 98 91 88 85 77 69 63 58 55 49 47 50 41 26 18 10 5 5 2 358 352 347 345 344 344 354 1 353 346 342 337 333 332 329 327 324 321 318 314 312 310 308 304 301 298 295 295 294 292 291 290 289 287 282 275 270 268 265 261 258 255 251 248 247 246 244
316 280 284 89 109 111 121 136 140 136 132 128 119 116 119 117 112 108 105 102 96 88 83 76 66 61 60 53 47 43 45 48 36 17 4 358 356 354 350 348 344 340 338 341 346 352 348 338 335 335 333 332 331 328 325 322 319 316 313 311 309 306 302 299 296 294 294 292 291 290 288 287 287 284 281 277 273 268 263 258 254 252 252 250 247 245
284 294 343 241 185 146 138 152 153 146 143 140 128 120 122 120 117 116 113 106 95 78 61 52 51 57 55 42 32 33 37 29 12 2 353 343 342 344 344 342 339 336 335 337 342 342 334 331 334 336 334 332 329 326 323 320 317 314 311 309 306 303 300 298 296 295 294 293 292 291 288 288 287 284 281 277 274 272 268 262 256 252 250 248 247 246
345 357 6 335 344 66 111 142 143 34 106 130 132 132 130 124 126 134 127 106 92 48 14 4 1 10 20 11 2 5 6 353 344 344 338 329 332 337 335 332 331 329 328 328 327 323 324 330 335 334 331 329 327 324 321 318 315 314 312 310 308 304 301 299 297 296 296 295 294 291 289 286 284 283 282 280 278 276 273 270 265 259 253 248 245 246